Find Starlink 32330

NORAD ID: 61850 Int'l Des: 2024-202 Owner: SPXS Country: US Constellation: starlink operational
LEOCIRCULAR

Live Position

Loading 3D Globe...

About Starlink 32330

Description loading...

Upcoming Passes

Passes for default location (London). Set your location on the main map for personalized predictions.

Altitude History

Loading altitude history...

Two-Line Element Set

1 61850U 24202F 26132.32267176 .00000986 00000-0 45328-4 0 9997
2 61850 43.0001 238.2674 0001140 273.6444 86.4277 15.27579975 85079
Epoch: May 12, 2026 • Age: 8 hours

Current Status

Altitude 482.7 km
Velocity 7.63 km/s
Sub-Earth Point 19.81°N, 152.77°E
Launch Date Nov 7, 2024
Age 1.5 years
Type internet

Technical Details

Classification Payload
Mass 730.00 kg
Dry Mass 700.00 kg
Total Mass 730.00 kg
Length 0.30 m
Diameter 4.10 m
Span 29.00 m
Shape Box + pan
Manufacturer SPXS
Bus Type Starlink V2M
Phase Status In Orbit
Owner/State SPXS/US

Most Searched